Página principal
METAR-TAF:

METAR-TAF

Aeroportos :

Tan-Tan, Marrocos

latitude: 28-26-54N, longitude: 11-09-41W, altura: 199 m

Observação actual do tempo

O boletim foi feito há 57 minutos, às 13:00 UTC
Vento 8 kt de oes-noroeste
Temperatura 19°C
Humidade 68%
Pressão 1017 hPa
Visibilidade 10 km ou mais
Nuvens dispersasa uma altura de 1300 ft

METAR: GMAT 201300Z 30008KT 9999 SCT013 19/13 Q1017 NOSIG

Hora: 13:57 (13:57 UTC)


TAF: em falta

Observações e previsões do tempo de mais de 4000 aeroportos (mensagens METAR e TAF).

As estações disponíveis são os pontos amarelos e vermelhos sobre o mapa.

Mova o rato sobre o mapa para ver o nome da estação.

Depois clique no ponto para visualizar as observações e previsões meteorológicas.

Para alterar o mapa : clique nos botões verdes com uma cruz preta para aumentar o zoom; no botão verde com uma pitada de zoom; ou nas setas verdes para mapas adjacentes.


METAR-TAF: